Home > Weather > Amsterdam > Past weeks

Flag for Netherlands Weather for the Past 2 Weeks in Amsterdam, Netherlands

Now
39 °F

Sprinkles. Passing clouds.


Feels Like: 34 °F
Forecast: 38 / 44 °F
Wind: 8 mph from Southwest

Location: Amsterdam Schiphol Airport

Current Time: Feb 10, 2016 at 4:34:55 AM

Latest Report: Feb 10, 2016 at 3:55 AM


Visibility: N/A

Pressure: 29.15 "Hg

Humidity: 93%

Dew point: 37 °F

Location of AmsterdamLocation

Historic Weather in Amsterdam — Graph

°F

Amsterdam Temperature Yesterday

Maximum temperature yesterday: 46 °F (at 12:25 AM)
Minimum temperature yesterday: 39 °F (at 4:25 PM)
Average temperature yesterday: 43 °F

High & Low Weather Summary for the Past Weeks

 TemperatureHumidityPressure
High54 °F (Jan 27, 2:55 PM)100% (Jan 26, 6:25 AM)30.27 "Hg (Jan 26, 6:25 AM)
Low37 °F (Feb 4, 12:55 AM)57% (Jan 30, 8:55 PM)28.94 "Hg (Feb 9, 3:25 PM)
Average47 °F81%29.78 "Hg
* Reported Jan 26 2:25 AM — Feb 10 2:25 AM, Amsterdam, Weather by CustomWeather, © 2016

Note: Actual official high and low records may vary slightly from our data, if they occured in-between our weather recording intervals... More about our weather records

Advertising

Amsterdam Weather History for the Previous 24 Hours

 ConditionsComfort  
Time TempWeatherWind HumidityBarometerVisibility
2:25 AM
Wed, Feb 10
37 °FScattered showers. Passing clouds.10 mph87%29.15 "HgN/A
1:55 AM39 °FPassing clouds.12 mph81%29.15 "HgN/A
1:25 AM39 °FScattered showers. Passing clouds.12 mph81%29.15 "HgN/A
12:55 AM41 °FSprinkles. Passing clouds.16 mph76%29.12 "HgN/A
12:25 AM41 °FScattered showers. Passing clouds.13 mph70%29.12 "HgN/A
11:55 PM
Tue, Feb 9
39 °FScattered showers. Passing clouds.9 mph75%29.12 "HgN/A
10:55 PM41 °FPassing clouds.13 mph70%29.12 "HgN/A
10:25 PM41 °FPassing clouds.14 mph70%29.09 "HgN/A
9:55 PM41 °FPassing clouds.16 mph76%29.09 "HgN/A
9:25 PM41 °FSprinkles. Passing clouds.16 mph76%29.09 "HgN/A
8:55 PM41 °FPassing clouds.15 mph76%29.06 "HgN/A
8:25 PM41 °FPassing clouds.12 mph76%29.06 "HgN/A
7:55 PM41 °FPassing clouds.16 mph76%29.03 "HgN/A
7:25 PM41 °FPassing clouds.15 mph81%29.03 "HgN/A
6:55 PM41 °FPassing clouds.14 mph87%29.00 "HgN/A
6:25 PM41 °FLight rain. Passing clouds.15 mph87%29.00 "HgN/A
5:55 PM41 °FPartly cloudy.13 mph87%29.00 "HgN/A
5:25 PM41 °FDrizzle. Partly sunny.14 mph87%28.97 "HgN/A
4:55 PM41 °FDrizzle. Partly sunny.14 mph87%28.97 "HgN/A
4:25 PM39 °FLight rain. Broken clouds.12 mph93%28.94 "HgN/A
3:55 PM41 °FLight rain. Broken clouds.9 mph87%28.94 "HgN/A
3:25 PM41 °FRain. Overcast.7 mph87%28.94 "HgN/A
2:55 PM41 °FRain. Overcast.6 mph81%28.97 "HgN/A
2:25 PM41 °FRain. Overcast.2 mph81%28.97 "Hg6 mi
1:55 PM41 °FRain. Overcast.3 mph87%29.00 "HgN/A
1:25 PM43 °FLight rain. Scattered clouds.6 mph76%29.03 "HgN/A
12:55 PM43 °FLight rain. Scattered clouds.9 mph87%29.03 "HgN/A
12:25 PM43 °FLight rain. Partly sunny.9 mph87%29.06 "HgN/A
11:25 AM45 °FPassing clouds.12 mph81%29.12 "HgN/A
10:55 AM45 °FPassing clouds.12 mph81%29.15 "HgN/A
10:25 AM43 °FScattered clouds.15 mph87%29.18 "HgN/A
9:55 AM43 °FPassing clouds.15 mph87%29.21 "HgN/A
8:55 AM43 °FScattered clouds.14 mph87%29.24 "HgN/A
8:25 AM41 °FPassing clouds.16 mph93%29.24 "HgN/A
7:55 AM43 °FPassing clouds.15 mph87%29.24 "HgN/A
6:55 AM43 °FScattered showers. Passing clouds.22 mph87%29.27 "HgN/A
6:25 AM43 °FSprinkles. Passing clouds.23 mph87%29.30 "HgN/A
5:55 AM43 °FPassing clouds.21 mph87%29.27 "HgN/A
5:25 AM45 °FPassing clouds.24 mph71%29.30 "HgN/A
4:55 AM45 °FPassing clouds.24 mph71%29.30 "HgN/A
4:25 AM45 °FPassing clouds.23 mph71%29.30 "HgN/A
Weather by CustomWeather, © 2016

See weather overviewHow to use our weather pages